Location: Dumpton Point
(51.3500°N, 1.4433°E)
Time: 18:25:33
(UTC+00:00)

STARLINK-1243 - Pass Details

Date: 09 April 2020
Orbit: 549 x 550 km, 53.0° (Epoch: 25 May)

Event Time Altitude Azimuth Distance (km) Brightness Sun altitude
Rises 19:12:39 0° 284° (WNW) 2,729 9.8 -5.5°
Reaches altitude 10° 19:14:54 10° 285° (WNW) 1,834 8.1 -5.8°
Maximum altitude 19:19:04 83° 13° (NNE) 563 3.7 -6.4°
Drops below altitude 10° 19:23:15 10° 103° (ESE) 1,832 5.6 -7.0°
Enters shadow 19:23:30 - 103° (ESE) 1,932 5.7 -7.1°
